China Lake, CA

11:31 PM PDT on August 24, 2019 (GMT -0700)
China Lake NAWS

Weather History for KNID - July, 2019

Change the Weather History Date:

Monday, July 22, 2019

  Actual Average Record
Temperature  
Mean Temperature 92 °F -  
Max Temperature 107 °F 100 °F 109 °F (1996)
Min Temperature 77 °F 71 °F 61 °F (1999)
Cooling Degree Days 27    
Growing Degree Days 42 (Base 50)    
Moisture  
Dew Point 43 °F    
Average Humidity 17    
Maximum Humidity 33    
Minimum Humidity 9    
Precipitation  
Precipitation 0.00 in - - ()
Sea Level Pressure  
Sea Level Pressure 29.95 in    
Wind  
Wind Speed 9 mph (South)    
Max Wind Speed 21 mph    
Max Gust Speed 30 mph    
Visibility 10 miles    
Events      
Averages and records for this station are not official NWS values.
T = Trace of Precipitation, MM = Missing Value Source: NWS Daily Summary

Daily Weather History Graph

Daily Weather History Graph

Search for Another Location

Airport or City:

Astronomy

Jul. 22, 2019 Rise Set
Actual Time 5:51 AM PDT 8:02 PM PDT
Civil Twilight 5:22 AM PDT 8:31 PM PDT
Nautical Twilight 4:46 AM PDT 9:06 PM PDT
Astronomical Twilight 4:08 AM PDT 9:45 PM PDT
Moon 11:36 PM PDT (7/22) 11:02 AM PDT (7/22)
Length of Visible Light 15h 09m
Length of Day
14h 11m
Waning Gibbous, 71% of the Moon is Illuminated
Jul 22
Waning Gibbous
Jul 24
Last Quarter
Jul 31
New
Aug 7
First Quarter
Aug 15
Full

Hourly Weather History & Observations

Time (PDT) Temp. Dew Point Humidity Pressure Visibility Wind Dir Wind Speed Gust Speed Precip Events Conditions
12:56 AM - - N/A% 29.91 in - North - - N/A   Unknown
1:56 AM - - N/A% 29.91 in - North - - N/A   Unknown
2:56 AM - - N/A% 29.91 in - North - - N/A   Unknown
3:56 AM - - N/A% 29.93 in - North - - N/A   Unknown
4:56 AM - - N/A% 29.94 in - North - - N/A   Unknown
5:56 AM 77.5 °F 43.2 °F 29% 29.95 in 10.0 mi SSW 4.6 mph - N/A   Partly Cloudy
6:56 AM 77.7 °F 46.2 °F 33% 29.96 in 10.0 mi SW 4.6 mph - N/A   Partly Cloudy
7:56 AM 84.0 °F 42.8 °F 23% 29.98 in 10.0 mi Variable 3.5 mph - N/A   Partly Cloudy
8:56 AM 91.0 °F 43.2 °F 19% 29.98 in 10.0 mi Variable 4.6 mph - N/A   Partly Cloudy
9:56 AM 95.7 °F 43.7 °F 17% 29.98 in 10.0 mi SE 6.9 mph - N/A   Partly Cloudy
10:56 AM 99.7 °F 42.1 °F 14% 29.98 in 10.0 mi SE 6.9 mph - N/A   Partly Cloudy
11:56 AM 104.5 °F 35.8 °F 9% 29.97 in 10.0 mi ESE 11.5 mph 23.0 mph N/A   Partly Cloudy
12:56 PM 106.3 °F 37.4 °F 9% 29.96 in 10.0 mi South 13.8 mph 27.6 mph N/A   Scattered Clouds
1:56 PM 107.1 °F 38.8 °F 10% 29.95 in 10.0 mi South 11.5 mph 23.0 mph N/A   Scattered Clouds
2:56 PM 104.0 °F 42.1 °F 12% 29.95 in 10.0 mi SSW 19.6 mph 28.8 mph N/A   Mostly Cloudy
3:56 PM 101.5 °F 43.2 °F 14% 29.95 in 10.0 mi SSW 20.7 mph 29.9 mph N/A   Mostly Cloudy
4:56 PM 104.0 °F 42.1 °F 12% 29.93 in 10.0 mi SE 11.5 mph 21.9 mph N/A   Mostly Cloudy
5:56 PM 105.1 °F 42.1 °F 12% 29.92 in 10.0 mi SSE 13.8 mph 18.4 mph N/A   Scattered Clouds
6:56 PM 102.0 °F 43.0 °F 13% 29.92 in 10.0 mi South 11.5 mph - N/A   Scattered Clouds
7:56 PM 99.0 °F 45.0 °F 16% 29.92 in 10.0 mi South 12.7 mph - N/A   Scattered Clouds
8:56 PM 97.0 °F 48.0 °F 19% 29.93 in 10.0 mi SW 11.5 mph - N/A   Scattered Clouds
9:56 PM 95.0 °F 48.9 °F 21% 29.96 in 10.0 mi SSW 11.5 mph - N/A   Scattered Clouds
10:56 PM 91.9 °F 48.9 °F 23% 29.97 in 10.0 mi South 11.5 mph - N/A   Clear
11:56 PM 91.0 °F 48.9 °F 23% 29.98 in 10.0 mi South 9.2 mph - N/A   Clear